User: anonymous
Location: Raven Hill Discovery Center
(45.1336°N, 85.0553°W)
Time: 16:24:02
(UTC-04:00)
Language:

Cosmos 1470 - Orbit

View from above orbital plane
View from above orbital plane
View from above satellite
View from above satellite

Ground track
Ground track

The orbit data is extracted from the following two-line orbital elements,

1 14147U 83061A   14265.31420541  .00002211  00000-0  14490-3 0   913
2 14147 082.5071 297.4097 0014395 115.4442 244.8278 15.07159224454120
Epoch (UTC): 22 September 2014 07:32:27
Eccentricity: 0.0014395
inclination: 82.5071°
perigee height: 535 km
apogee height: 555 km
right ascension of ascending node: 297.4097°
argument of perigee: 115.4442°
revolutions per day: 15.07159224
mean anomaly at epoch: 244.8278°
orbit number at epoch: 45412

The dashed part of the orbit path shows where the satellite is in the earth's shadow,  

DLR